{"data":{"norad_id":66307,"epoch":"2026-05-24T13:15:37.807488Z","epoch_age_seconds":110934,"freshness":"FRESH","line1":"1 66307U 25248Q   26144.55252092  .00012812  00000+0  49355-3 0  9992","line2":"2 66307  45.3865 241.8981 0012836 289.3942  70.5559 15.26351791 30997","mean_motion":15.26351791,"eccentricity":0.0012836,"inclination_deg":45.3865,"raan_deg":241.8981,"arg_perigee_deg":289.3942,"mean_anomaly_deg":70.5559,"bstar":0.00049355,"rev_number":3099,"period_min":94.342602307727,"perigee_km":477.91751918892,"apogee_km":495.5410038555,"semimajor_km":6864.8662615222,"source":"CELESTRAK","updated_at":"2026-05-25T13:38:06.132235Z"}}